CW2659 Weather Reports


time (UTC)temp
F
wind
direction
speed
knots
gust
knots
rain 1hr
in
rain 24hr
in
rain mn
in
humidity
%
barometer
mb
20260503213023 80 318 3.5 8.7 0.00 0.00 0.00 45 1010.7
20260503211521 80 351 3.5 7.0 0.00 0.00 0.00 44 1010.8
20260503210017 79 7 1.7 7.8 0.00 0.00 0.00 44 1011.0
20260503204514 78 14 4.3 8.7 0.00 0.00 0.00 47 1011.2
20260503203032 77 31 5.2 8.7 0.00 0.00 0.00 49 1011.3
20260503201509 77 50 5.2 9.6 0.00 0.00 0.00 47 1011.5
20260503200005 76 332 3.5 7.0 0.00 0.00 0.00 48 1011.7
20260503194503 75 345 5.2 8.7 0.00 0.00 0.00 49 1011.8
20260503193100 75 332 2.6 7.0 0.00 0.00 0.00 53 1012.1
20260503191557 74 332 2.6 6.1 0.00 0.00 0.00 55 1012.2
20260503184549 71 61 4.3 9.6 0.00 0.00 0.00 60 1012.5
20260503183045 69 33 5.2 12.2 0.00 0.00 0.00 64 1012.6
20260503181549 68 24 6.1 12.2 0.00 0.00 0.00 66 1012.6
20260503180040 68 52 7.0 10.4 0.00 0.00 0.00 66 1012.6
20260503174537 67 28 6.1 9.6 0.00 0.00 0.00 64 1012.8
20260503173034 66 40 5.2 10.4 0.00 0.00 0.00 66 1012.8
20260503171532 65 57 5.2 8.7 0.00 0.00 0.00 68 1012.9
20260503100107 58 44 2.6 4.3 0.00 0.00 0.00 68 1013.3
20260503081550 60 70 4.3 7.8 0.00 0.00 0.00 65 1013.6
20260503071537 60 56 5.2 8.7 0.00 0.00 0.00 64 1013.5
20260503054550 62 57 7.0 12.2 0.00 0.00 0.00 59 1013.4
20260503053038 62 58 6.1 12.2 0.00 0.00 0.00 58 1013.5
20260503051530 63 13 7.0 11.3 0.00 0.00 0.00 58 1013.4
20260503050029 63 42 7.0 13.0 0.00 0.00 0.00 58 1013.4
20260503044529 63 20 7.0 13.0 0.00 0.00 0.00 59 1013.4
20260503043029 63 68 7.0 11.3 0.00 0.00 0.00 59 1013.2
20260503041528 63 50 6.1 10.4 0.00 0.00 0.00 58 1013.1
20260503040035 63 54 7.0 13.0 0.00 0.00 0.00 57 1013.0
20260503034528 64 29 6.1 13.9 0.00 0.00 0.00 57 1012.7
20260503033030 65 81 6.1 10.4 0.00 0.00 0.00 60 1012.6
20260503031526 66 60 6.1 10.4 0.00 0.00 0.00 61 1012.5
20260503030027 68 26 6.1 10.4 0.00 0.00 0.00 61 1012.3
20260503024526 69 32 6.1 10.4 0.00 0.00 0.00 59 1012.2
20260503023026 70 53 5.2 11.3 0.00 0.00 0.00 57 1012.2
20260503021524 72 30 7.0 11.3 0.00 0.00 0.00 55 1012.2
20260503020048 73 16 3.5 8.7 0.00 0.00 0.00 55 1012.2
20260503014524 74 28 3.5 8.7 0.00 0.00 0.00 54 1012.3
20260503013022 74 7 4.3 8.7 0.00 0.00 0.00 54 1012.2
20260503011523 74 37 2.6 7.8 0.00 0.00 0.00 54 1012.4
20260503010023 74 14 5.2 12.2 0.00 0.00 0.00 52 1012.3
20260503004519 75 18 7.8 11.3 0.00 0.00 0.00 52 1012.4
20260503003016 76 18 5.2 10.4 0.00 0.00 0.00 50 1012.4
20260503001515 76 45 4.3 9.6 0.00 0.00 0.00 50 1012.5
20260503000014 76 7 2.6 8.7 0.00 0.00 0.00 49 1012.7
20260502234522 75 344 5.2 7.8 0.00 0.00 0.00 49 1012.8
20260502233010 75 34 5.2 9.6 0.00 0.00 0.00 49 1013.0
20260502231507 75 338 7.0 13.0 0.00 0.00 0.00 52 1013.2
20260502230005 75 11 2.6 11.3 0.00 0.00 0.00 54 1013.3
20260502224502 74 332 5.2 12.2 0.00 0.00 0.00 56 1013.5
20260502223001 74 28 4.3 12.2 0.00 0.00 0.00 60 1013.7
20260502221558 73 28 5.2 13.9 0.00 0.00 0.00 58 1013.9
20260502220057 73 5 7.0 11.3 0.00 0.00 0.00 60 1014.1
20260502214555 73 307 5.2 9.6 0.00 0.00 0.00 58 1014.2